Fayetteville, NC

12:24 PM EST on February 10, 2016 (GMT -0500)
Fayetteville Regional-Grannis

Weather History for KFAY - September, 2012

Change the Weather History Date:

Thursday, September 6, 2012

  Actual Average Record
Temperature  
Mean Temperature 82 °F 77 °F  
Max Temperature 91 °F 86 °F 98 °F (1941)
Min Temperature 72 °F 67 °F 47 °F (1997)
Degree Days  
Heating Degree Days 0 0  
Month to date heating degree days 0 0  
Since 1 July heating degree days 0 0  
Cooling Degree Days 17 11  
Month to date cooling degree days 108 72  
Year to date cooling degree days 1857 1712  
Growing Degree Days 32 (Base 50)    
Moisture  
Dew Point 72 °F    
Average Humidity 75    
Maximum Humidity 94    
Minimum Humidity 56    
Precipitation  
Precipitation 0.67 in 0.16 in 3.69 in (1996)
Month to date precipitation 0.72 0.91  
Year to date precipitation 32.45 32.34  
Sea Level Pressure  
Sea Level Pressure 29.91 in    
Wind  
Wind Speed 8 mph (SSW)    
Max Wind Speed 22 mph    
Max Gust Speed 26 mph    
Visibility 9 miles    
Events Rain , Thunderstorm    
T = Trace of Precipitation, MM = Missing Value Source: NWS Daily Summary

Daily Weather History Graph

Daily Weather History Graph

Search for Another Location

Airport or City:

Trip Planner

Search our weather history database for the weather conditions in past years. The results will help you decide how hot, cold, wet, or windy it might be!

Date:

Astronomy

Sep. 06, 2012 Rise Set
Actual Time 6:52 AM EDT 7:34 PM EDT
Civil Twilight 6:26 AM EDT 8:00 PM EDT
Nautical Twilight 5:56 AM EDT 8:30 PM EDT
Astronomical Twilight 5:25 AM EDT 9:01 PM EDT
Moon 11:00 PM EDT (9/6) 12:34 PM EDT (9/6)
Length of Visible Light 13h 33m
Length of Day
12h 42m
Waning Gibbous, 67% of the Moon is Illuminated
Sep 6
Waning Gibbous
Sep 8
Last Quarter
Sep 15
New
Sep 22
First Quarter
Sep 29
Full

Hourly Weather History & Observations

Time (EDT) Temp. Heat Index Dew Point Humidity Pressure Visibility Wind Dir Wind Speed Gust Speed Precip Events Conditions
12:53 AM 77.0 °F - 72.0 °F 84% 29.91 in 10.0 mi South 6.9 mph - N/A   Clear
1:53 AM 75.0 °F - 72.0 °F 90% 29.91 in 10.0 mi SSW 6.9 mph - N/A   Clear
2:53 AM 75.0 °F - 73.0 °F 94% 29.91 in 10.0 mi SSW 6.9 mph - N/A   Scattered Clouds
3:53 AM 75.0 °F - 73.0 °F 94% 29.91 in 10.0 mi SSW 8.1 mph - N/A   Partly Cloudy
4:53 AM 75.0 °F - 73.0 °F 94% 29.89 in 9.0 mi SSW 8.1 mph - N/A   Clear
5:53 AM 75.9 °F - 73.9 °F 94% 29.90 in 10.0 mi South 8.1 mph - N/A   Overcast
6:53 AM 75.9 °F - 73.9 °F 94% 29.91 in 9.0 mi South 6.9 mph - N/A   Overcast
7:05 AM 75.2 °F - 73.4 °F 94% 29.93 in 9.0 mi SSW 8.1 mph - N/A   Overcast
7:12 AM 75.2 °F - 73.4 °F 94% 29.93 in 8.0 mi SSW 9.2 mph - N/A   Overcast
7:53 AM 75.9 °F - 73.9 °F 94% 29.92 in 7.0 mi SSW 6.9 mph - N/A   Overcast
8:12 AM 77.0 °F - 73.4 °F 89% 29.94 in 7.0 mi SSW 8.1 mph - N/A   Overcast
8:53 AM 78.1 °F - 73.9 °F 87% 29.93 in 9.0 mi SSW 6.9 mph - N/A   Overcast
9:40 AM 80.6 °F 85.4 °F 73.4 °F 79% 29.96 in 10.0 mi SSW 9.2 mph - N/A   Overcast
9:53 AM 80.1 °F 84.2 °F 73.0 °F 79% 29.94 in 10.0 mi SSW 9.2 mph - N/A   Overcast
10:53 AM 84.9 °F 90.7 °F 72.0 °F 65% 29.94 in 10.0 mi SW 13.8 mph - N/A   Mostly Cloudy
11:53 AM 86.0 °F 91.5 °F 71.1 °F 61% 29.93 in 10.0 mi SSW 13.8 mph 19.6 mph N/A   Mostly Cloudy
12:53 PM 89.1 °F 95.0 °F 71.1 °F 55% 29.91 in 10.0 mi WSW 11.5 mph 20.7 mph N/A   Scattered Clouds
1:53 PM 90.0 °F 96.4 °F 71.1 °F 54% 29.91 in 10.0 mi SW 11.5 mph 23.0 mph N/A   Scattered Clouds
2:53 PM 89.1 °F 95.0 °F 71.1 °F 55% 29.88 in 10.0 mi SW 12.7 mph - N/A   Scattered Clouds
3:53 PM 90.0 °F 96.9 °F 72.0 °F 55% 29.86 in 10.0 mi SW 8.1 mph 18.4 mph N/A   Partly Cloudy
4:53 PM 89.1 °F 96.0 °F 72.0 °F 57% 29.86 in 10.0 mi SSW 9.2 mph - N/A   Partly Cloudy
5:53 PM 88.0 °F 94.7 °F 72.0 °F 59% 29.86 in 10.0 mi South 10.4 mph - N/A   Mostly Cloudy
6:03 PM 87.8 °F 93.8 °F 71.6 °F 58% 29.88 in 10.0 mi SSW 9.2 mph - N/A Thunderstorm Mostly Cloudy
6:18 PM 86.0 °F 91.8 °F 71.6 °F 62% 29.88 in 10.0 mi SSW 6.9 mph - N/A   Scattered Clouds
6:23 PM 86.0 °F 91.8 °F 71.6 °F 62% 29.88 in 10.0 mi SW 8.1 mph - N/A Thunderstorm Mostly Cloudy
6:53 PM 84.9 °F 90.7 °F 72.0 °F 65% 29.89 in 10.0 mi NNW 16.1 mph 19.6 mph N/A Thunderstorm Mostly Cloudy
7:07 PM 78.8 °F - 71.6 °F 78% 29.90 in 10.0 mi NNE 19.6 mph 26.5 mph N/A Thunderstorm Overcast
7:22 PM 75.2 °F - 71.6 °F 89% 29.92 in 10.0 mi North 15.0 mph 23.0 mph N/A Thunderstorm Overcast
7:31 PM 73.4 °F - 73.4 °F 100% 29.92 in 2.5 mi North 12.7 mph 21.9 mph 0.20 in Rain , Thunderstorm Heavy Rain
7:38 PM 73.4 °F - 73.4 °F 100% 29.92 in 1.2 mi North 13.8 mph - 0.34 in Rain , Thunderstorm Heavy Rain
7:44 PM 73.4 °F - 73.4 °F 100% 29.93 in 2.0 mi North 9.2 mph - 0.37 in Rain , Thunderstorm Rain
7:53 PM 73.0 °F - 72.0 °F 96% 29.91 in 1.5 mi ENE 4.6 mph - 0.58 in Rain , Thunderstorm Heavy Rain
8:00 PM 73.4 °F - 71.6 °F 94% 29.94 in 3.0 mi NNE 3.5 mph - 0.01 in Rain , Thunderstorm Light Rain
8:07 PM 73.4 °F - 71.6 °F 94% 29.94 in 8.0 mi Calm Calm - 0.01 in Rain , Thunderstorm Light Rain
8:53 PM 73.9 °F - 72.0 °F 93% 29.90 in 10.0 mi South 5.8 mph - 0.07 in Rain , Thunderstorm Light Rain
9:53 PM 73.0 °F - 72.0 °F 96% 29.89 in 10.0 mi SSW 4.6 mph - 0.02 in Thunderstorm Partly Cloudy
10:53 PM 73.0 °F - 72.0 °F 96% 29.93 in 10.0 mi ENE 3.5 mph - N/A   Clear
11:53 PM 73.0 °F - 72.0 °F 96% 29.93 in 10.0 mi NE 4.6 mph - N/A   Overcast